Tracking 17694 objects as of 26-May-2016
HD Live streaming from Space Station
objects crossing your sky now

COSMOS 1023

Track COSMOS 1023 now!
10-day predictions
COSMOS 1023 is classified as:


NORAD ID: 10961
Int'l Code: 1978-063A
Perigee: 765.8 km
Apogee: 789.4 km
Inclination: 74.1 °
Period: 100.3 minutes
Semi major axis: 7148 km
RCS: 3.0969 m2 (large)
Launch date: June 21, 1978
Source: Commonwealth of Independent States (former USSR) (CIS)
Launch site: PLESETSK MISSILE AND SPACE COMPLEX (PKMTR)
Your satellite tracking list
Your tracking list is empty





NASA's NSSDC Master Catalog

Two Line Element Set (TLE):
1 10961U 78063A   16146.50008052  .00000018  00000-0  14927-4 0  9995
2 10961  74.0762 345.6510 0016479 356.1047   3.9975 14.36389548985468
Source of the keplerian elements: AFSPC

N2YO: 524